Tracking 30107 objects as of 25-Jan-2025
HD Live streaming from Space Station
objects crossing your sky now

STARLINK-3942

Track STARLINK-3942 now!
10-day predictions
STARLINK-3942 is classified as:


NORAD ID: 52563
Int'l Code: 2022-051AG
Perigee: 545.8 km
Apogee: 547.9 km
Inclination: 53.2 °
Period: 95.4 minutes
Semi major axis: 6917 km
RCS: Unknown
Launch date: May 13, 2022
Source: United States (US)
Launch site: AIR FORCE WESTERN TEST RANGE (AFWTR)
Your satellite tracking list
Your tracking list is empty




NASA's NSSDC Master Catalog

Two Line Element Set (TLE):
1 52563U 22051AG  25025.52910646  .00001337  00000-0  10206-3 0  9994
2 52563  53.2184 166.4243 0001526  88.7596 271.3571 15.08837478149752
Source of the keplerian elements: AFSPC